STARLINK-34471

Last updated on Sat Jul 19 2025 00:02:08 GMT+0000 (Coordinated Universal Time)

1 64739U 25144R 25199.56337362 -.00546509 00000+0 -43584-2 0 9992 2 64739 53.1581 192.2682 0001077 121.4707 238.6417 15.72047219 3755
UTC large
Height (km)
Speed (km/s)
/
Latitude / Longitude
Inclination (degrees)
Orbital Period (minutes)
Azimuth
Elevation
Range (km)
Doppler Factor

Next 0 passes for location: London (51.5072 / 0.1276)

Sorry there are no passes over London.